����������;��������(kVARh)
2018-05-28 00:00;2,55
2018-05-28 00:15;1,05
2018-05-28 00:30;1,3
2018-05-28 00:45;1,7
2018-05-28 01:00;1,85
2018-05-28 01:15;2,05
2018-05-28 01:30;2,6
2018-05-28 01:45;2,75
2018-05-28 02:00;1,45
2018-05-28 02:15;0,55
2018-05-28 02:30;1,05
2018-05-28 02:45;1,3
2018-05-28 03:00;1,05
2018-05-28 03:15;1,1
2018-05-28 03:30;2,1
2018-05-28 03:45;1,9
2018-05-28 04:00;3,55
2018-05-28 04:15;2,35
2018-05-28 04:30;1,8
2018-05-28 04:45;2,05
2018-05-28 05:00;2,8
2018-05-28 05:15;2,55
2018-05-28 05:30;3,6
2018-05-28 05:45;2,35
2018-05-28 06:00;2,25
2018-05-28 06:15;2,95
2018-05-28 06:30;1,7
2018-05-28 06:45;0,9
2018-05-28 07:00;1,7
2018-05-28 07:15;0
2018-05-28 07:30;1,65
2018-05-28 07:45;6,55
2018-05-28 08:00;9,1
2018-05-28 08:15;8,6
2018-05-28 08:30;7,7
2018-05-28 08:45;7,05
2018-05-28 09:00;12,75
2018-05-28 09:15;12,7
2018-05-28 09:30;17,05
2018-05-28 09:45;20,7
2018-05-28 10:00;21,3
2018-05-28 10:15;20,65
2018-05-28 10:30;19,95
2018-05-28 10:45;29,9
2018-05-28 11:00;28,4
2018-05-28 11:15;26,65
2018-05-28 11:30;24,9
2018-05-28 11:45;26,8
2018-05-28 12:00;25,85
2018-05-28 12:15;25,55
2018-05-28 12:30;24,8
2018-05-28 12:45;26,25
2018-05-28 13:00;25,85
2018-05-28 13:15;25,85
2018-05-28 13:30;25,45
2018-05-28 13:45;28,95
2018-05-28 14:00;28,4
2018-05-28 14:15;29,55
2018-05-28 14:30;30,3
2018-05-28 14:45;30,6
2018-05-28 15:00;29,9
2018-05-28 15:15;29,35
2018-05-28 15:30;27,55
2018-05-28 15:45;29,6
2018-05-28 16:00;31,95
2018-05-28 16:15;32,75
2018-05-28 16:30;29,5
2018-05-28 16:45;28,15
2018-05-28 17:00;31,45
2018-05-28 17:15;30,4
2018-05-28 17:30;25,7
2018-05-28 17:45;29,2
2018-05-28 18:00;29,25
2018-05-28 18:15;26,55
2018-05-28 18:30;25,35
2018-05-28 18:45;24,15
2018-05-28 19:00;23,8
2018-05-28 19:15;25,2
2018-05-28 19:30;25,1
2018-05-28 19:45;27,6
2018-05-28 20:00;26,15
2018-05-28 20:15;23,95
2018-05-28 20:30;24,7
2018-05-28 20:45;22,9
2018-05-28 21:00;21,1
2018-05-28 21:15;21,8
2018-05-28 21:30;23
2018-05-28 21:45;21
2018-05-28 22:00;19,55
2018-05-28 22:15;20,6
2018-05-28 22:30;18,95
2018-05-28 22:45;19,4
2018-05-28 23:00;19,15
2018-05-28 23:15;13,95
2018-05-28 23:30;11,15
2018-05-28 23:45;10,45
2018-05-29 00:00;11,15
2018-05-29 00:15;9,9
2018-05-29 00:30;7,1
2018-05-29 00:45;6,25
2018-05-29 01:00;4,25
2018-05-29 01:15;2,6
2018-05-29 01:30;2,2
2018-05-29 01:45;3,5
2018-05-29 02:00;3,65
2018-05-29 02:15;3,85
2018-05-29 02:30;3,45
2018-05-29 02:45;4
2018-05-29 03:00;3,8
2018-05-29 03:15;4,05
2018-05-29 03:30;5,25
2018-05-29 03:45;5,5
2018-05-29 04:00;6,2
2018-05-29 04:15;5,9
2018-05-29 04:30;4,8
2018-05-29 04:45;5,7
2018-05-29 05:00;5,9
2018-05-29 05:15;5,35
2018-05-29 05:30;5,2
2018-05-29 05:45;5,85
2018-05-29 06:00;7,5
2018-05-29 06:15;5,85
2018-05-29 06:30;6,25
2018-05-29 06:45;7,6
2018-05-29 07:00;14,55
2018-05-29 07:15;12,15
2018-05-29 07:30;9,95
2018-05-29 07:45;15,85
2018-05-29 08:00;18,45
2018-05-29 08:15;16,65
2018-05-29 08:30;24,95
2018-05-29 08:45;27,65
2018-05-29 09:00;30,7
2018-05-29 09:15;28,9
2018-05-29 09:30;32,55
2018-05-29 09:45;50,75
2018-05-29 10:00;72,8
2018-05-29 10:15;57,2
2018-05-29 10:30;46,55
2018-05-29 10:45;57,95
2018-05-29 11:00;51,4
2018-05-29 11:15;63,55
2018-05-29 11:30;56,55
2018-05-29 11:45;54,6
2018-05-29 12:00;54
2018-05-29 12:15;51,65
2018-05-29 12:30;54,55
2018-05-29 12:45;53,5
2018-05-29 13:00;56,1
2018-05-29 13:15;54,05
2018-05-29 13:30;56,6
2018-05-29 13:45;51,9
2018-05-29 14:00;50,55
2018-05-29 14:15;60,9
2018-05-29 14:30;55,1
2018-05-29 14:45;59,9
2018-05-29 15:00;57,3
2018-05-29 15:15;47,55
2018-05-29 15:30;56,05
2018-05-29 15:45;46,55
2018-05-29 16:00;43,25
2018-05-29 16:15;29,6
2018-05-29 16:30;30,85
2018-05-29 16:45;32,05
2018-05-29 17:00;34,8
2018-05-29 17:15;28,3
2018-05-29 17:30;31,95
2018-05-29 17:45;26,35
2018-05-29 18:00;26,25
2018-05-29 18:15;19,75
2018-05-29 18:30;19
2018-05-29 18:45;18,75
2018-05-29 19:00;17,15
2018-05-29 19:15;17,4
2018-05-29 19:30;15,75
2018-05-29 19:45;16,35
2018-05-29 20:00;18,55
2018-05-29 20:15;14,45
2018-05-29 20:30;14,45
2018-05-29 20:45;17,3
2018-05-29 21:00;15,45
2018-05-29 21:15;15,5
2018-05-29 21:30;14,8
2018-05-29 21:45;10,8
2018-05-29 22:00;9,3
2018-05-29 22:15;8,55
2018-05-29 22:30;6,75
2018-05-29 22:45;5,95
2018-05-29 23:00;4,7
2018-05-29 23:15;4,9
2018-05-29 23:30;5,85
2018-05-29 23:45;4,35
2018-05-30 00:00;0
2018-05-30 00:15;0
2018-05-30 00:30;0,05
2018-05-30 00:45;0
2018-05-30 01:00;0
2018-05-30 01:15;0
2018-05-30 01:30;0
2018-05-30 01:45;0
2018-05-30 02:00;0,05
2018-05-30 02:15;0
2018-05-30 02:30;0
2018-05-30 02:45;0,05
2018-05-30 03:00;0
2018-05-30 03:15;0
2018-05-30 03:30;0
2018-05-30 03:45;0
2018-05-30 04:00;0
2018-05-30 04:15;0
2018-05-30 04:30;0
2018-05-30 04:45;0
2018-05-30 05:00;0
2018-05-30 05:15;0
2018-05-30 05:30;0,2
2018-05-30 05:45;0,5
2018-05-30 06:00;1,2
2018-05-30 06:15;0,5
2018-05-30 06:30;0,1
2018-05-30 06:45;2,9
2018-05-30 07:00;3,75
2018-05-30 07:15;3
2018-05-30 07:30;7,95
2018-05-30 07:45;13,7
2018-05-30 08:00;13,3
2018-05-30 08:15;10,95
2018-05-30 08:30;16,5
2018-05-30 08:45;22,75
2018-05-30 09:00;27,05
2018-05-30 09:15;51,75
2018-05-30 09:30;29,65
2018-05-30 09:45;23,05
2018-05-30 10:00;24,9
2018-05-30 10:15;26,75
2018-05-30 10:30;34,2
2018-05-30 10:45;46,2
2018-05-30 11:00;43,8
2018-05-30 11:15;48,4
2018-05-30 11:30;46,4
2018-05-30 11:45;50,25
2018-05-30 12:00;50,7
2018-05-30 12:15;54,9
2018-05-30 12:30;48,95
2018-05-30 12:45;51,3
2018-05-30 13:00;49,15
2018-05-30 13:15;52,65
2018-05-30 13:30;49,5
2018-05-30 13:45;49,15
2018-05-30 14:00;50,85
2018-05-30 14:15;49
2018-05-30 14:30;48,05
2018-05-30 14:45;48,45
2018-05-30 15:00;48,65
2018-05-30 15:15;46,5
2018-05-30 15:30;44,1
2018-05-30 15:45;43,95
2018-05-30 16:00;40,8
2018-05-30 16:15;40,55
2018-05-30 16:30;42,85
2018-05-30 16:45;33,75
2018-05-30 17:00;40
2018-05-30 17:15;30,05
2018-05-30 17:30;37,55
2018-05-30 17:45;30
2018-05-30 18:00;35
2018-05-30 18:15;19,5
2018-05-30 18:30;20
2018-05-30 18:45;18,7
2018-05-30 19:00;14,5
2018-05-30 19:15;13,4
2018-05-30 19:30;12,1
2018-05-30 19:45;15,55
2018-05-30 20:00;16,8
2018-05-30 20:15;19,75
2018-05-30 20:30;18,55
2018-05-30 20:45;18,4
2018-05-30 21:00;18,3
2018-05-30 21:15;18,85
2018-05-30 21:30;18,9
2018-05-30 21:45;18,15
2018-05-30 22:00;16,85
2018-05-30 22:15;13,9
2018-05-30 22:30;13,6
2018-05-30 22:45;13,85
2018-05-30 23:00;16,35
2018-05-30 23:15;16,85
2018-05-30 23:30;17,55
2018-05-30 23:45;14,35
2018-05-31 00:00;12,55
2018-05-31 00:15;14
2018-05-31 00:30;11,85
2018-05-31 00:45;12,9
2018-05-31 01:00;9,45
2018-05-31 01:15;9,6
2018-05-31 01:30;6,35
2018-05-31 01:45;4,45
2018-05-31 02:00;3,35
2018-05-31 02:15;3,15
2018-05-31 02:30;3,85
2018-05-31 02:45;4,35
2018-05-31 03:00;3,35
2018-05-31 03:15;3,35
2018-05-31 03:30;3,1
2018-05-31 03:45;3,65
2018-05-31 04:00;4,3
2018-05-31 04:15;3,45
2018-05-31 04:30;4,45
2018-05-31 04:45;3,8
2018-05-31 05:00;3,95
2018-05-31 05:15;1,9
2018-05-31 05:30;2,55
2018-05-31 05:45;1,95
2018-05-31 06:00;7,65
2018-05-31 06:15;8,8
2018-05-31 06:30;6,7
2018-05-31 06:45;5,65
2018-05-31 07:00;5,2
2018-05-31 07:15;3
2018-05-31 07:30;9,4
2018-05-31 07:45;15,2
2018-05-31 08:00;18,35
2018-05-31 08:15;17,1
2018-05-31 08:30;17
2018-05-31 08:45;18,8
2018-05-31 09:00;24,05
2018-05-31 09:15;52,35
2018-05-31 09:30;33,35
2018-05-31 09:45;27,2
2018-05-31 10:00;28,6
2018-05-31 10:15;29
2018-05-31 10:30;31,15
2018-05-31 10:45;32,25
2018-05-31 11:00;35,55
2018-05-31 11:15;45,45
2018-05-31 11:30;47,6
2018-05-31 11:45;47,45
2018-05-31 12:00;53,4
2018-05-31 12:15;46,55
2018-05-31 12:30;51
2018-05-31 12:45;47,5
2018-05-31 13:00;48,7
2018-05-31 13:15;44,3
2018-05-31 13:30;47,6
2018-05-31 13:45;50,95
2018-05-31 14:00;47,8
2018-05-31 14:15;49,65
2018-05-31 14:30;46,4
2018-05-31 14:45;53,3
2018-05-31 15:00;51,65
2018-05-31 15:15;54,55
2018-05-31 15:30;46,5
2018-05-31 15:45;48
2018-05-31 16:00;46,5
2018-05-31 16:15;45,2
2018-05-31 16:30;45,15
2018-05-31 16:45;43,8
2018-05-31 17:00;41,85
2018-05-31 17:15;37,65
2018-05-31 17:30;39,45
2018-05-31 17:45;36,75
2018-05-31 18:00;33,75
2018-05-31 18:15;25,7
2018-05-31 18:30;20,95
2018-05-31 18:45;17,15
2018-05-31 19:00;23,3
2018-05-31 19:15;24,5
2018-05-31 19:30;26,45
2018-05-31 19:45;25,9
2018-05-31 20:00;25,15
2018-05-31 20:15;24,7
2018-05-31 20:30;24,55
2018-05-31 20:45;23,1
2018-05-31 21:00;21,55
2018-05-31 21:15;22,3
2018-05-31 21:30;23,25
2018-05-31 21:45;22,95
2018-05-31 22:00;21,4
2018-05-31 22:15;20,7
2018-05-31 22:30;16,25
2018-05-31 22:45;16
2018-05-31 23:00;15,45
2018-05-31 23:15;15,4
2018-05-31 23:30;14,9
2018-05-31 23:45;10
2018-06-01 00:00;10,6
2018-06-01 00:15;10,25
2018-06-01 00:30;10,25
2018-06-01 00:45;5,3
2018-06-01 01:00;6,3
2018-06-01 01:15;6,9
2018-06-01 01:30;8,9
2018-06-01 01:45;8,65
2018-06-01 02:00;3,95
2018-06-01 02:15;0,05
2018-06-01 02:30;0,45
2018-06-01 02:45;0
2018-06-01 03:00;0,1
2018-06-01 03:15;0,4
2018-06-01 03:30;0,6
2018-06-01 03:45;0,8
2018-06-01 04:00;2,75
2018-06-01 04:15;3,15
2018-06-01 04:30;3,35
2018-06-01 04:45;3,75
2018-06-01 05:00;1,8
2018-06-01 05:15;3,85
2018-06-01 05:30;3,85
2018-06-01 05:45;3,75
2018-06-01 06:00;5,9
2018-06-01 06:15;5,65
2018-06-01 06:30;6,85
2018-06-01 06:45;7,05
2018-06-01 07:00;6,25
2018-06-01 07:15;7,5
2018-06-01 07:30;8,85
2018-06-01 07:45;10,95
2018-06-01 08:00;15,9
2018-06-01 08:15;17,75
2018-06-01 08:30;18,15
2018-06-01 08:45;19,2
2018-06-01 09:00;22,15
2018-06-01 09:15;48,9
2018-06-01 09:30;28,6
2018-06-01 09:45;30,45
2018-06-01 10:00;31,05
2018-06-01 10:15;32,75
2018-06-01 10:30;41,55
2018-06-01 10:45;43,1
2018-06-01 11:00;49,65
2018-06-01 11:15;46,55
2018-06-01 11:30;54,4
2018-06-01 11:45;56,05
2018-06-01 12:00;49,95
2018-06-01 12:15;56,85
2018-06-01 12:30;54,95
2018-06-01 12:45;55,3
2018-06-01 13:00;55,35
2018-06-01 13:15;51,4
2018-06-01 13:30;50,45
2018-06-01 13:45;49,8
2018-06-01 14:00;50,2
2018-06-01 14:15;57,15
2018-06-01 14:30;53,5
2018-06-01 14:45;60,65
2018-06-01 15:00;52,6
2018-06-01 15:15;59,2
2018-06-01 15:30;50,5
2018-06-01 15:45;54,6
2018-06-01 16:00;47,4
2018-06-01 16:15;45,75
2018-06-01 16:30;47,3
2018-06-01 16:45;46,95
2018-06-01 17:00;46,5
2018-06-01 17:15;42,8
2018-06-01 17:30;43,8
2018-06-01 17:45;35,9
2018-06-01 18:00;34,6
2018-06-01 18:15;27,9
2018-06-01 18:30;22,2
2018-06-01 18:45;31,05
2018-06-01 19:00;31,5
2018-06-01 19:15;31,25
2018-06-01 19:30;31,05
2018-06-01 19:45;35,85
2018-06-01 20:00;36,3
2018-06-01 20:15;34,4
2018-06-01 20:30;34,5
2018-06-01 20:45;28,35
2018-06-01 21:00;28,5
2018-06-01 21:15;28,55
2018-06-01 21:30;29,15
2018-06-01 21:45;26,55
2018-06-01 22:00;20,3
2018-06-01 22:15;15,4
2018-06-01 22:30;14,4
2018-06-01 22:45;22,85
2018-06-01 23:00;21,4
2018-06-01 23:15;19,7
2018-06-01 23:30;18,45
2018-06-01 23:45;17,5
2018-06-02 00:00;16,65
2018-06-02 00:15;11,15
2018-06-02 00:30;11,3
2018-06-02 00:45;9
2018-06-02 01:00;13,3
2018-06-02 01:15;9,2
2018-06-02 01:30;9,2
2018-06-02 01:45;4,8
2018-06-02 02:00;3,7
2018-06-02 02:15;2,45
2018-06-02 02:30;1,05
2018-06-02 02:45;1,4
2018-06-02 03:00;2,55
2018-06-02 03:15;1,7
2018-06-02 03:30;2,4
2018-06-02 03:45;3,15
2018-06-02 04:00;2,3
2018-06-02 04:15;2,5
2018-06-02 04:30;3,3
2018-06-02 04:45;2,8
2018-06-02 05:00;3,4
2018-06-02 05:15;3,7
2018-06-02 05:30;2,95
2018-06-02 05:45;3,4
2018-06-02 06:00;3,25
2018-06-02 06:15;4,15
2018-06-02 06:30;4,75
2018-06-02 06:45;5,1
2018-06-02 07:00;4
2018-06-02 07:15;2,2
2018-06-02 07:30;0,6
2018-06-02 07:45;7,1
2018-06-02 08:00;7,7
2018-06-02 08:15;5,5
2018-06-02 08:30;5,05
2018-06-02 08:45;8,15
2018-06-02 09:00;6,95
2018-06-02 09:15;7,85
2018-06-02 09:30;8,1
2018-06-02 09:45;9,5
2018-06-02 10:00;8,5
2018-06-02 10:15;8,85
2018-06-02 10:30;9,4
2018-06-02 10:45;13,7
2018-06-02 11:00;14,9
2018-06-02 11:15;15,2
2018-06-02 11:30;15,15
2018-06-02 11:45;16,6
2018-06-02 12:00;14,8
2018-06-02 12:15;14
2018-06-02 12:30;14,55
2018-06-02 12:45;15,5
2018-06-02 13:00;14
2018-06-02 13:15;15,55
2018-06-02 13:30;15,15
2018-06-02 13:45;17,05
2018-06-02 14:00;19,3
2018-06-02 14:15;21,6
2018-06-02 14:30;18,2
2018-06-02 14:45;19,05
2018-06-02 15:00;20,95
2018-06-02 15:15;21,7
2018-06-02 15:30;24,9
2018-06-02 15:45;24,85
2018-06-02 16:00;21,9
2018-06-02 16:15;21,65
2018-06-02 16:30;22,95
2018-06-02 16:45;21,55
2018-06-02 17:00;21,5
2018-06-02 17:15;22,9
2018-06-02 17:30;22,6
2018-06-02 17:45;21,45
2018-06-02 18:00;19,1
2018-06-02 18:15;20,45
2018-06-02 18:30;23,6
2018-06-02 18:45;18,65
2018-06-02 19:00;14,95
2018-06-02 19:15;17,65
2018-06-02 19:30;19,45
2018-06-02 19:45;20,8
2018-06-02 20:00;18,35
2018-06-02 20:15;16,95
2018-06-02 20:30;19,15
2018-06-02 20:45;21,2
2018-06-02 21:00;19,05
2018-06-02 21:15;18,95
2018-06-02 21:30;18,15
2018-06-02 21:45;15,5
2018-06-02 22:00;15
2018-06-02 22:15;11,9
2018-06-02 22:30;11,75
2018-06-02 22:45;11,8
2018-06-02 23:00;11,65
2018-06-02 23:15;11,4
2018-06-02 23:30;9,8
2018-06-02 23:45;9,85
2018-06-03 00:00;10,8
2018-06-03 00:15;10
2018-06-03 00:30;11,5
2018-06-03 00:45;11,6
2018-06-03 01:00;9,85
2018-06-03 01:15;11,6
2018-06-03 01:30;13,9
2018-06-03 01:45;12,95
2018-06-03 02:00;13,85
2018-06-03 02:15;10,85
2018-06-03 02:30;5,75
2018-06-03 02:45;5,85
2018-06-03 03:00;5,75
2018-06-03 03:15;5,8
2018-06-03 03:30;6,5
2018-06-03 03:45;7,2
2018-06-03 04:00;6,55
2018-06-03 04:15;6,8
2018-06-03 04:30;7,15
2018-06-03 04:45;7,5
2018-06-03 05:00;9,2
2018-06-03 05:15;8,35
2018-06-03 05:30;7,55
2018-06-03 05:45;8,2
2018-06-03 06:00;7,6
2018-06-03 06:15;8,95
2018-06-03 06:30;9,35
2018-06-03 06:45;7,8
2018-06-03 07:00;7,2
2018-06-03 07:15;6,85
2018-06-03 07:30;7,55
2018-06-03 07:45;8,45
2018-06-03 08:00;8,9
2018-06-03 08:15;8,05
2018-06-03 08:30;9,5
2018-06-03 08:45;10,6
2018-06-03 09:00;10,8
2018-06-03 09:15;11,5
2018-06-03 09:30;11
2018-06-03 09:45;11,85
2018-06-03 10:00;9,75
2018-06-03 10:15;9,6
2018-06-03 10:30;8,95
2018-06-03 10:45;9,75
2018-06-03 11:00;13,6
2018-06-03 11:15;15,85
2018-06-03 11:30;14
2018-06-03 11:45;14,65
2018-06-03 12:00;12,8
2018-06-03 12:15;12,95
2018-06-03 12:30;12,45
2018-06-03 12:45;12,65
2018-06-03 13:00;12,85
2018-06-03 13:15;13,7
2018-06-03 13:30;15,75
2018-06-03 13:45;15,15
2018-06-03 14:00;15,45
2018-06-03 14:15;17,75
2018-06-03 14:30;18,3
2018-06-03 14:45;17,7
2018-06-03 15:00;17,7
2018-06-03 15:15;19,2
2018-06-03 15:30;19,9
2018-06-03 15:45;19,6
2018-06-03 16:00;20,5
2018-06-03 16:15;19,45
2018-06-03 16:30;21
2018-06-03 16:45;19,65
2018-06-03 17:00;18,1
2018-06-03 17:15;19,4
2018-06-03 17:30;18,15
2018-06-03 17:45;17,55
2018-06-03 18:00;14,9
2018-06-03 18:15;16,25
2018-06-03 18:30;17,3
2018-06-03 18:45;18,05
2018-06-03 19:00;19,15
2018-06-03 19:15;19,5
2018-06-03 19:30;20,1
2018-06-03 19:45;20,55
2018-06-03 20:00;20
2018-06-03 20:15;18,9
2018-06-03 20:30;18,75
2018-06-03 20:45;17,2
2018-06-03 21:00;17,85
2018-06-03 21:15;15,2
2018-06-03 21:30;16,3
2018-06-03 21:45;15,05
2018-06-03 22:00;13,3
2018-06-03 22:15;16,55
2018-06-03 22:30;16,7
2018-06-03 22:45;15,85
2018-06-03 23:00;17,15
2018-06-03 23:15;17,65
2018-06-03 23:30;18,5
2018-06-03 23:45;21,15

